| time (UTC) | temp F | wind direction | speed knots | gust knots | rain 1hr in | rain 24hr in | rain mn in | humidity % | barometer mb |
| 20260505012009 | 46 | 120 | 3.5 | 9.6 | 0.00 | 2.52 | 0.32 | 84 | 1004.4 |
| 20260505011518 | 46 | 239 | 2.6 | 8.7 | 0.00 | 2.52 | 0.32 | 84 | 1004.4 |
| 20260505011019 | 47 | 27 | 2.6 | 8.7 | 0.00 | 2.52 | 0.32 | 84 | 1004.3 |
| 20260505010526 | 47 | 179 | 2.6 | 7.0 | 0.00 | 2.52 | 0.32 | 84 | 1004.0 |
| 20260505010055 | 47 | 164 | 2.6 | 7.0 | 0.00 | 3.15 | 0.32 | 83 | 1004.0 |
| 20260505005532 | 47 | 240 | 2.6 | 6.1 | 0.00 | 3.15 | 0.32 | 83 | 1003.9 |
| 20260505005011 | 47 | 200 | 2.6 | 7.8 | 0.00 | 3.15 | 0.32 | 82 | 1003.9 |
| 20260505004518 | 47 | 88 | 3.5 | 10.4 | 0.00 | 3.15 | 0.32 | 82 | 1003.7 |
| 20260505004020 | 47 | 334 | 3.5 | 10.4 | 0.00 | 3.15 | 0.32 | 82 | 1003.7 |
| 20260505003522 | 47 | 315 | 3.5 | 10.4 | 0.00 | 3.15 | 0.32 | 81 | 1003.6 |
| 20260505003029 | 48 | 349 | 3.5 | 8.7 | 0.00 | 3.15 | 0.32 | 81 | 1003.5 |
| 20260505002510 | 48 | 286 | 2.6 | 6.1 | 0.00 | 3.15 | 0.32 | 81 | 1003.5 |
| 20260505002012 | 48 | 64 | 2.6 | 7.0 | 0.00 | 3.15 | 0.32 | 80 | 1003.5 |
| 20260505001514 | 48 | 356 | 2.6 | 7.0 | 0.00 | 3.15 | 0.32 | 80 | 1003.3 |
| 20260505001022 | 48 | 278 | 2.6 | 4.3 | 0.00 | 3.15 | 0.32 | 80 | 1003.3 |
| 20260505000523 | 48 | 358 | 2.6 | 6.1 | 0.00 | 3.15 | 0.32 | 79 | 1003.2 |
| 20260505000034 | 48 | 91 | 1.7 | 6.1 | 0.00 | 3.78 | 0.32 | 79 | 1003.0 |
| 20260504235513 | 48 | 60 | 1.7 | 7.0 | 0.00 | 3.78 | 0.32 | 78 | 1003.0 |
| 20260504235014 | 48 | 99 | 2.6 | 6.1 | 0.00 | 3.78 | 0.32 | 78 | 1002.8 |
| 20260504234522 | 48 | 262 | 2.6 | 6.1 | 0.00 | 3.78 | 0.32 | 77 | 1002.8 |
| 20260504234023 | 48 | 142 | 2.6 | 6.1 | 0.00 | 3.78 | 0.32 | 77 | 1002.7 |
| 20260504233552 | 48 | 215 | 2.6 | 6.1 | 0.00 | 3.78 | 0.32 | 76 | 1002.6 |
| 20260504233012 | 48 | 207 | 1.7 | 6.1 | 0.00 | 3.78 | 0.32 | 76 | 1002.6 |
| 20260504232513 | 49 | 242 | 1.7 | 6.1 | 0.00 | 3.78 | 0.32 | 75 | 1002.6 |
| 20260504232043 | 49 | 307 | 2.6 | 8.7 | 0.00 | 3.78 | 0.32 | 74 | 1002.4 |
| 20260504231523 | 49 | 52 | 2.6 | 8.7 | 0.00 | 3.78 | 0.32 | 72 | 1002.4 |
| 20260504231031 | 49 | 332 | 1.7 | 5.2 | 0.00 | 3.78 | 0.32 | 71 | 1002.3 |
| 20260504230513 | 50 | 319 | 2.6 | 5.2 | 0.00 | 3.78 | 0.32 | 70 | 1002.3 |
| 20260504230035 | 50 | 94 | 1.7 | 5.2 | 0.00 | 4.33 | 0.32 | 69 | 1002.3 |
| 20260504225521 | 50 | 212 | 1.7 | 7.0 | 0.00 | 4.33 | 0.32 | 68 | 1002.2 |
| 20260504225023 | 50 | 325 | 2.6 | 7.0 | 0.00 | 4.33 | 0.32 | 67 | 1002.1 |
| 20260504224547 | 50 | 231 | 2.6 | 6.1 | 0.00 | 4.33 | 0.32 | 66 | 1002.2 |
| 20260504224027 | 50 | 259 | 2.6 | 7.8 | 0.00 | 4.33 | 0.32 | 65 | 1002.1 |
| 20260504223537 | 51 | 214 | 2.6 | 7.8 | 0.00 | 4.33 | 0.32 | 64 | 1002.1 |
| 20260504223016 | 51 | 199 | 2.6 | 6.1 | 0.00 | 4.33 | 0.32 | 63 | 1002.1 |
| 20260504222518 | 51 | 143 | 2.6 | 7.8 | 0.00 | 4.33 | 0.32 | 61 | 1002.0 |
| 20260504222027 | 51 | 141 | 3.5 | 9.6 | 0.00 | 4.33 | 0.32 | 61 | 1001.9 |
| 20260504221528 | 51 | 353 | 3.5 | 9.6 | 0.00 | 4.33 | 0.32 | 60 | 1001.9 |
| 20260504221009 | 51 | 30 | 3.5 | 11.3 | 0.00 | 4.33 | 0.32 | 59 | 1001.8 |
| 20260504220510 | 52 | 252 | 4.3 | 12.2 | 0.00 | 4.33 | 0.32 | 58 | 1001.6 |
| 20260504220040 | 52 | 241 | 4.3 | 12.2 | 0.00 | 5.16 | 0.32 | 59 | 1001.6 |
| 20260504215519 | 52 | 243 | 4.3 | 12.2 | 0.00 | 5.16 | 0.32 | 58 | 1001.6 |
| 20260504215028 | 52 | 189 | 3.5 | 10.4 | 0.00 | 5.16 | 0.32 | 59 | 1001.6 |
| 20260504214528 | 52 | 264 | 5.2 | 10.4 | 0.00 | 5.16 | 0.32 | 58 | 1001.5 |
| 20260504214009 | 52 | 111 | 4.3 | 13.0 | 0.00 | 5.16 | 0.32 | 56 | 1001.5 |
| 20260504213518 | 52 | 29 | 4.3 | 13.0 | 0.00 | 5.16 | 0.32 | 56 | 1001.4 |
| 20260504213014 | 52 | 162 | 3.5 | 10.4 | 0.00 | 5.16 | 0.32 | 55 | 1001.4 |
| 20260504212514 | 53 | 224 | 3.5 | 13.0 | 0.00 | 5.16 | 0.32 | 56 | 1001.4 |
| 20260504212022 | 53 | 5 | 6.1 | 13.0 | 0.00 | 5.16 | 0.32 | 56 | 1001.4 |
| 20260504211524 | 53 | 223 | 4.3 | 11.3 | 0.00 | 5.16 | 0.32 | 57 | 1001.5 |
| 20260504211025 | 54 | 115 | 3.5 | 9.6 | 0.00 | 5.16 | 0.32 | 58 | 1001.5 |
| 20260504210533 | 54 | 217 | 3.5 | 11.3 | 0.00 | 5.16 | 0.32 | 59 | 1001.3 |
| 20260504210036 | 54 | 176 | 4.3 | 11.3 | 0.00 | 5.91 | 0.32 | 58 | 1001.4 |
| 20260504205521 | 55 | 331 | 4.3 | 11.3 | 0.00 | 5.91 | 0.32 | 58 | 1001.2 |
| 20260504205022 | 55 | 299 | 4.3 | 11.3 | 0.00 | 5.91 | 0.32 | 58 | 1001.2 |
| 20260504204530 | 55 | 217 | 4.3 | 9.6 | 0.00 | 5.91 | 0.32 | 57 | 1001.1 |
| 20260504204012 | 55 | 193 | 3.5 | 12.2 | 0.00 | 5.91 | 0.32 | 57 | 1001.1 |
| 20260504203513 | 55 | 354 | 4.3 | 12.2 | 0.00 | 5.91 | 0.32 | 57 | 1000.9 |
| 20260504203015 | 56 | 94 | 5.2 | 10.4 | 0.00 | 5.91 | 0.32 | 56 | 1000.9 |
| 20260504202521 | 56 | 72 | 4.3 | 10.4 | 0.00 | 5.91 | 0.32 | 53 | 1000.7 |
| 20260504202043 | 58 | 250 | 5.2 | 10.4 | 0.00 | 5.91 | 0.32 | 51 | 1000.8 |
| 20260504201529 | 58 | 295 | 1.7 | 6.1 | 0.00 | 5.91 | 0.32 | 45 | 1000.7 |
| 20260504201010 | 58 | 211 | 2.6 | 7.0 | 0.00 | 5.91 | 0.32 | 45 | 1000.6 |
| 20260504200539 | 58 | 328 | 3.5 | 7.8 | 0.00 | 5.91 | 0.32 | 43 | 1000.6 |
| 20260504200108 | 58 | 290 | 2.6 | 7.8 | 0.00 | 6.46 | 0.32 | 44 | 1000.5 |
| 20260504195526 | 58 | 41 | 3.5 | 7.8 | 0.00 | 6.46 | 0.32 | 46 | 1000.4 |
| 20260504195027 | 58 | 314 | 2.6 | 11.3 | 0.00 | 6.46 | 0.32 | 43 | 1000.4 |
| 20260504194535 | 58 | 308 | 3.5 | 11.3 | 0.00 | 6.46 | 0.32 | 46 | 1000.4 |
| 20260504194016 | 58 | 61 | 1.7 | 7.8 | 0.00 | 6.46 | 0.32 | 46 | 1000.3 |
| 20260504193517 | 57 | 221 | 2.6 | 8.7 | 0.00 | 6.46 | 0.32 | 44 | 1000.3 |
| 20260504193019 | 58 | 293 | 3.5 | 8.7 | 0.00 | 6.46 | 0.32 | 42 | 1000.2 |
| 20260504192526 | 58 | 182 | 2.6 | 7.8 | 0.00 | 6.46 | 0.32 | 45 | 1000.2 |
| 20260504192027 | 58 | 327 | 2.6 | 7.8 | 0.00 | 6.46 | 0.32 | 45 | 1000.3 |
| 20260504191535 | 58 | 300 | 3.5 | 7.8 | 0.00 | 6.46 | 0.32 | 43 | 1000.1 |
| 20260504191016 | 58 | 320 | 3.5 | 8.7 | 0.00 | 6.46 | 0.32 | 43 | 1000.1 |
| 20260504190517 | 58 | 103 | 2.6 | 8.7 | 0.00 | 6.46 | 0.32 | 46 | 1000.1 |
| 20260504190047 | 58 | 68 | 4.3 | 8.7 | 0.00 | 6.57 | 0.32 | 46 | 1000.0 |
| 20260504185546 | 57 | 72 | 2.6 | 7.8 | 0.00 | 6.57 | 0.32 | 51 | 1000.0 |
| 20260504185033 | 57 | 262 | 3.5 | 9.6 | 0.00 | 6.57 | 0.32 | 49 | 1000.0 |
| 20260504184515 | 57 | 281 | 4.3 | 9.6 | 0.00 | 6.57 | 0.32 | 48 | 1000.0 |
| 20260504184015 | 57 | 323 | 4.3 | 10.4 | 0.00 | 6.57 | 0.32 | 49 | 1000.0 |
| 20260504183516 | 57 | 219 | 4.3 | 10.4 | 0.00 | 6.57 | 0.32 | 49 | 1000.0 |
| 20260504183024 | 57 | 184 | 4.3 | 8.7 | 0.00 | 6.57 | 0.32 | 53 | 999.8 |
| 20260504182525 | 56 | 90 | 2.6 | 10.4 | 0.00 | 6.57 | 0.32 | 55 | 999.9 |
| 20260504182032 | 56 | 287 | 4.3 | 10.4 | 0.00 | 6.57 | 0.32 | 56 | 1000.0 |
| 20260504181510 | 56 | 273 | 2.6 | 7.8 | 0.00 | 6.57 | 0.32 | 55 | 1000.1 |
| 20260504181012 | 56 | 84 | 4.3 | 9.6 | 0.00 | 6.57 | 0.32 | 57 | 1000.0 |
| 20260504180512 | 56 | 98 | 4.3 | 9.6 | 0.00 | 6.57 | 0.32 | 58 | 1000.1 |
| 20260504180043 | 55 | 317 | 3.5 | 12.2 | 0.00 | 6.65 | 0.32 | 57 | 1000.1 |
| 20260504175529 | 55 | 320 | 3.5 | 12.2 | 0.00 | 6.65 | 0.32 | 57 | 1000.1 |
| 20260504175010 | 55 | 321 | 3.5 | 11.3 | 0.00 | 6.65 | 0.32 | 57 | 1000.0 |
| 20260504174510 | 55 | 52 | 6.1 | 11.3 | 0.00 | 6.65 | 0.32 | 56 | 1000.0 |
| 20260504174010 | 55 | 330 | 3.5 | 13.9 | 0.00 | 6.65 | 0.32 | 60 | 1000.1 |
| 20260504173519 | 55 | 322 | 4.3 | 13.9 | 0.00 | 6.65 | 0.32 | 58 | 999.8 |
| 20260504173018 | 55 | 39 | 4.3 | 9.6 | 0.00 | 6.65 | 0.32 | 57 | 999.8 |
| 20260504172518 | 55 | 266 | 5.2 | 12.2 | 0.00 | 6.65 | 0.32 | 58 | 999.8 |
| 20260504172027 | 55 | 304 | 4.3 | 12.2 | 0.00 | 6.65 | 0.32 | 61 | 999.8 |
| 20260504171525 | 55 | 102 | 2.6 | 10.4 | 0.00 | 6.65 | 0.32 | 63 | 999.8 |
| 20260504171025 | 55 | 348 | 6.1 | 10.4 | 0.00 | 6.65 | 0.32 | 58 | 999.8 |
| 20260504170533 | 55 | 258 | 4.3 | 10.4 | 0.00 | 6.65 | 0.32 | 61 | 999.7 |
| 20260504170105 | 54 | 303 | 3.5 | 11.3 | 0.00 | 7.01 | 0.32 | 60 | 999.6 |
| 20260504151011 | 48 | 335 | 2.6 | 9.6 | 0.00 | 7.09 | 0.32 | 88 | 998.5 |
| 20260504150513 | 47 | 304 | 3.5 | 9.6 | 0.00 | 7.09 | 0.32 | 88 | 998.5 |
| 20260504141020 | 45 | 312 | 2.6 | 7.8 | 0.00 | 7.09 | 0.32 | 97 | 997.9 |
| 20260504140522 | 45 | 326 | 3.5 | 7.8 | 0.00 | 7.09 | 0.32 | 97 | 997.8 |
| 20260504130534 | 44 | 341 | 3.5 | 8.7 | 0.00 | 7.09 | 0.32 | 98 | 996.5 |
| 20260504110525 | 39 | 358 | 3.5 | 7.8 | 0.24 | 7.09 | 0.32 | 100 | 994.1 |
| 20260504100528 | 38 | 270 | 1.7 | 5.2 | 0.35 | 6.85 | 0.28 | 100 | 992.6 |
| 20260504081508 | 34 | 307 | 3.5 | 7.0 | 0.04 | 6.06 | 0.12 | 100 | 988.9 |
| 20260504081029 | 34 | 305 | 1.7 | 8.7 | 0.00 | 6.02 | 0.11 | 100 | 988.9 |
| 20260504080511 | 34 | 4 | 2.6 | 8.7 | 0.00 | 6.02 | 0.11 | 100 | 988.9 |
| 20260504050522 | 36 | 330 | 6.1 | 17.4 | 0.08 | 5.79 | 0.06 | 100 | 983.3 |
| 20260504045515 | 36 | 321 | 6.1 | 14.8 | 0.12 | 5.79 | 0.06 | 100 | 983.4 |
| 20260504045040 | 36 | 40 | 4.3 | 13.9 | 0.16 | 5.79 | 0.06 | 100 | 983.4 |
| 20260504044518 | 36 | 283 | 6.1 | 13.9 | 0.16 | 5.79 | 0.06 | 100 | 983.3 |
| 20260504044025 | 36 | 4 | 4.3 | 17.4 | 0.16 | 5.79 | 0.06 | 100 | 983.3 |
| 20260504043510 | 36 | 356 | 7.8 | 17.4 | 0.16 | 5.75 | 0.06 | 100 | 983.2 |
| 20260504043034 | 36 | 36 | 5.2 | 15.6 | 0.16 | 5.75 | 0.06 | 100 | 983.0 |
| 20260504042514 | 36 | 24 | 5.2 | 15.6 | 0.20 | 5.75 | 0.06 | 100 | 983.1 |
| 20260504042015 | 36 | 345 | 7.0 | 18.2 | 0.24 | 5.75 | 0.06 | 100 | 983.0 |
| 20260504041516 | 36 | 24 | 7.8 | 20.9 | 0.20 | 5.71 | 0.05 | 100 | 983.1 |
| 20260504041024 | 36 | 149 | 7.0 | 20.9 | 0.24 | 5.71 | 0.05 | 100 | 983.1 |
| 20260504040546 | 36 | 41 | 5.2 | 16.5 | 0.20 | 5.67 | 0.04 | 100 | 983.1 |
| 20260504040035 | 36 | 100 | 6.1 | 18.2 | 0.24 | 5.67 | 0.04 | 100 | 983.2 |
| 20260504035514 | 36 | 61 | 4.3 | 14.8 | 0.24 | 5.67 | 0.04 | 100 | 983.2 |
| 20260504035022 | 36 | 69 | 6.1 | 13.9 | 0.20 | 5.63 | 0.03 | 100 | 983.2 |
| 20260504034522 | 36 | 65 | 6.1 | 12.2 | 0.28 | 5.63 | 0.03 | 100 | 983.3 |
| 20260504034030 | 35 | 68 | 5.2 | 14.8 | 0.28 | 5.63 | 0.03 | 100 | 983.2 |
| 20260504033011 | 35 | 4 | 4.3 | 17.4 | 0.31 | 5.55 | 0.02 | 100 | 983.4 |
| 20260504032513 | 35 | 316 | 7.8 | 14.8 | 0.35 | 5.55 | 0.02 | 100 | 983.5 |
| 20260504032021 | 36 | 28 | 7.8 | 13.9 | 0.35 | 5.51 | 0.01 | 100 | 983.6 |
| 20260504031522 | 36 | 345 | 4.3 | 16.5 | 0.31 | 5.47 | 0.00 | 100 | 983.7 |
| 20260504031007 | 36 | 356 | 6.1 | 16.5 | 0.35 | 5.47 | 0.00 | 100 | 983.8 |
| 20260504030515 | 36 | 47 | 5.2 | 16.5 | 0.39 | 5.47 | 0.00 | 100 | 984.0 |
| 20260504030039 | 36 | 357 | 6.1 | 14.8 | 0.35 | 5.43 | 1.09 | 100 | 983.7 |
| 20260504025524 | 36 | 25 | 6.1 | 12.2 | 0.39 | 5.43 | 1.09 | 100 | 984.1 |
| 20260504025025 | 36 | 8 | 5.2 | 12.2 | 0.35 | 5.39 | 1.08 | 100 | 984.2 |
| 20260504024513 | 36 | 16 | 3.5 | 12.2 | 0.35 | 5.35 | 1.07 | 100 | 984.2 |
| 20260504024042 | 35 | 56 | 5.2 | 19.1 | 0.39 | 5.35 | 1.07 | 99 | 984.4 |
| 20260504023522 | 35 | 23 | 6.1 | 19.1 | 0.39 | 5.31 | 1.06 | 99 | 984.5 |
| 20260504023023 | 36 | 330 | 4.3 | 15.6 | 0.35 | 5.24 | 1.05 | 100 | 984.6 |
| 20260504022531 | 36 | 41 | 6.1 | 18.2 | 0.35 | 5.20 | 1.04 | 100 | 984.8 |
| 20260504022009 | 36 | 20 | 4.3 | 13.0 | 0.31 | 5.16 | 1.03 | 100 | 984.9 |
| 20260504021537 | 36 | 63 | 5.2 | 12.2 | 0.39 | 5.16 | 1.03 | 100 | 985.0 |
| 20260504021015 | 36 | 48 | 4.3 | 13.9 | 0.43 | 5.12 | 1.02 | 99 | 985.2 |
| 20260504020516 | 36 | 57 | 5.2 | 13.9 | 0.47 | 5.08 | 1.02 | 99 | 985.3 |
| 20260504020048 | 36 | 56 | 6.1 | 12.2 | 0.55 | 5.08 | 1.02 | 99 | 985.6 |
| 20260504015525 | 35 | 262 | 4.3 | 15.6 | 0.55 | 5.04 | 1.01 | 99 | 985.7 |
| 20260504015026 | 36 | 25 | 4.3 | 15.6 | 0.55 | 5.00 | 1.00 | 99 | 985.8 |
| 20260504014508 | 36 | 16 | 5.2 | 14.8 | 0.59 | 5.00 | 1.00 | 99 | 986.0 |
| 20260504014015 | 36 | 44 | 5.2 | 14.8 | 0.59 | 4.96 | 0.99 | 99 | 986.1 |
| 20260504013543 | 36 | 11 | 4.3 | 11.3 | 0.59 | 4.92 | 0.98 | 99 | 986.3 |
| 20260504013023 | 36 | 46 | 5.2 | 12.2 | 0.63 | 4.88 | 0.98 | 99 | 986.5 |
| 20260504012523 | 36 | 22 | 2.6 | 12.2 | 0.67 | 4.84 | 0.97 | 99 | 986.5 |